Location: 22
(39.7117°N, 89.5929°W)
Time: 00:47:40
(UTC-06:00)

Transit 4A - All Passes

Search period start: 06 February 2023 00:00
Search period end: 16 February 2023 00:00
Orbit: 870 x 973 km, 66.8° (Epoch: 05 February)

Date Brightness Start Highest point End Pass type
(mag) Time Alt. Az. Time Alt. Az. Time Alt. Az.
06 Feb - 00:26:34 10° N 00:30:29 18° NE 00:34:27 10° E night (unlit)
06 Feb - 02:11:35 10° NNW 02:17:37 90° WNW 02:23:47 10° SSE night (unlit)
06 Feb - 04:00:37 10° WNW 04:03:07 13° WSW 04:05:39 10° SW night (unlit)
06 Feb - 15:33:18 10° SSE 15:37:34 21° ESE 15:41:50 10° ENE daylight
06 Feb - 17:17:43 10° SW 17:23:26 55° WNW 17:29:09 10° NNE daylight
06 Feb - 19:09:25 10° NW 19:11:07 11° NW 19:12:50 10° NNW visible
07 Feb - 00:35:15 10° N 00:40:03 24° NE 00:44:54 10° E night (unlit)
07 Feb - 02:20:52 10° NW 02:26:47 61° WSW 02:32:50 10° SSE night (unlit)
07 Feb - 15:41:27 10° S 15:46:33 33° ESE 15:51:40 10° NE daylight
07 Feb - 17:27:23 10° WSW 17:32:46 38° NW 17:38:10 10° NNE daylight
08 Feb - 00:44:05 10° NNW 00:49:30 34° NE 00:55:00 10° ESE night (unlit)
08 Feb - 02:30:18 10° NW 02:35:53 41° WSW 02:41:35 10° S night (unlit)
08 Feb - 15:50:01 10° S 15:55:36 50° ESE 16:01:13 10° NE daylight
08 Feb - 17:37:20 10° WSW 17:42:11 27° NW 17:47:04 10° N daylight
08 Feb - 23:10:08 10° NNE 23:11:02 10° NE 23:11:56 10° NE night (unlit)
09 Feb - 00:53:05 10° NNW 00:58:53 49° NE 01:04:48 10° SE night (unlit)
09 Feb - 02:39:58 10° NW 02:44:55 27° WSW 02:49:58 10° SSW night (unlit)
09 Feb - 15:58:56 10° SSW 16:04:44 77° ESE 16:10:33 10° NNE daylight
09 Feb - 17:47:38 10° W 17:51:43 19° NW 17:55:50 10° N visible
09 Feb - 23:17:36 10° N 23:20:45 14° NE 23:23:56 10° ENE night (unlit)
10 Feb - 01:02:09 10° NNW 01:08:10 71° ENE 01:14:18 10° SE night (unlit)
10 Feb - 02:50:03 10° WNW 02:53:53 18° WSW 02:57:47 10° SW night (unlit)
10 Feb - 14:24:58 10° SE 14:28:18 16° ESE 14:31:39 10° ENE daylight
10 Feb - 16:08:08 10° SW 16:13:55 72° WNW 16:19:46 10° NNE daylight
10 Feb - 17:58:23 10° WNW 18:01:20 14° NW 18:04:18 10° N visible
10 Feb - 23:26:06 10° N 23:30:23 20° NE 23:34:43 10° E night (unlit)
11 Feb - 01:11:21 10° NNW 01:17:23 80° WSW 01:23:33 10° SSE night (unlit)
11 Feb - 03:01:32 10° W 03:02:46 11° W 03:04:02 10° WSW night (unlit)
11 Feb - 14:32:39 10° SSE 14:37:14 25° ESE 14:41:51 10° NE daylight
11 Feb - 16:17:36 10° SW 16:23:13 49° NW 16:28:51 10° NNE daylight
11 Feb - 23:34:51 10° N 23:39:54 27° NE 23:45:02 10° ESE night (unlit)
12 Feb - 01:20:41 10° NW 01:26:31 53° WSW 01:32:30 10° S night (unlit)
12 Feb - 14:40:57 10° S 14:46:14 38° ESE 14:51:33 10° NE daylight
12 Feb - 16:27:22 10° WSW 16:32:35 34° NW 16:37:50 10° NNE daylight
12 Feb - 23:43:45 10° NNW 23:49:20 38° NE 23:55:01 10° ESE night (unlit)
13 Feb - 01:30:11 10° NW 01:35:36 35° WSW 01:41:08 10° S night (unlit)
13 Feb - 14:49:38 10° SSW 14:55:19 58° ESE 15:01:02 10° NE daylight
13 Feb - 16:37:25 10° W 16:42:02 24° NW 16:46:42 10° N daylight
13 Feb - 22:08:58 10° NNE 22:10:59 12° NE 22:13:01 10° NE visible
13 Feb - 23:52:46 10° NNW 23:58:40 55° ENE 00:04:42 10° SE night (unlit)
14 Feb - 01:39:57 10° NW 01:44:36 23° WSW 01:49:20 10° SSW night (unlit)
14 Feb - 13:17:27 10° ESE 13:19:04 11° ESE 13:20:42 10° E daylight
14 Feb - 14:58:39 10° SSW 15:04:28 87° ESE 15:10:20 10° NNE daylight
14 Feb - 16:47:50 10° W 16:51:35 17° NW 16:55:22 10° N daylight
14 Feb - 22:17:04 10° N 22:20:40 16° NE 22:24:19 10° ENE visible
15 Feb - 00:01:54 10° NNW 00:07:56 81° ENE 00:14:08 10° SSE night (unlit)
15 Feb - 01:50:16 10° WNW 01:53:33 15° WSW 01:56:53 10° SW night (unlit)
15 Feb - 13:24:06 10° SSE 13:27:57 18° ESE 13:31:49 10° ENE daylight
15 Feb - 15:07:56 10° SW 15:13:42 63° WNW 15:19:30 10° NNE daylight
15 Feb - 16:58:50 10° WNW 17:01:15 12° NW 17:03:40 10° NNW daylight
15 Feb - 22:25:40 10° N 22:30:16 22° NE 22:34:55 10° E visible
